Weather Roundup
Issued by NWS Chicago, IL

Home | Current Version | Previous Version | Text Only | Print | Product List | Glossary Off
Versions: 1 2 3 4 5 6 7 8 9 10 11 12 13 14 15 16 17 18 19 20 21 22 23 24 25 26 27 28 29 30 31 32 33 34 35 36 37 38 39 40 41 42 43 44 45 46 47 48 49 50

000
NZUS59 KLOT 012110
HRRLOT

CHICAGO AREA WEATHER ROUNDUP
NATIONAL WEATHER SERVICE CHICAGO/ROMEOVILLE IL
300 PM CST SUN FEB 01 2015

NOTE: "FAIR" INDICATES FEW OR NO CLOUDS BELOW 12,000 FEET WITH NO
SIGNIFICANT WEATHER AND/OR OBSTRUCTIONS TO VISIBILITY.

* THESE STATIONS ARE NOT UNDER NWS QUALITY CONTROL. THEY ALSO MAY NOT
  REPORT WEATHER SUCH AS PRECIPITATION OR FOG.

ILZ005-006-012>014-019>023-012200-
NORTHEAST ILLINOIS

CITY           SKY/WX    TMP DP  RH WIND       PRES   REMARKS
OHARE          SNOW      23  21  92 NE23G38   29.76F VSB 1/2 WCI   7
MIDWAY         LGT SNOW  27  24  89 NE21G32   29.73F VSB 3/4 WCI  13
AURORA         HVY SNOW  25  20  81 NE29G36   29.73S VSB 1/4 WCI   8
LANSING*       SNOW      28  26  96 NE10      29.70S VSB 1/4 WCI  18
JOLIET*        LGT SNOW  27  25  91 NE14      29.70R VSB 3/4 WCI  16
WAUKEGAN       HVY SNOW  21  19  92 NE25G33   29.82F VSB<1/4 WCI   4
DUPAGE AIRPORT SNOW      24  20  84 NE31G44   29.75F VSB 1/4 WCI   7
WHEELING       HVY SNOW  23  20  88 NE21G35   29.80F VSB 1/4 WCI   8
KANKAKEE*      LGT SNOW  33  32  98 NE12      29.64F WCI  24
MORRIS*        LGT SNOW  28  27  96 NE9       29.68S VSB 3/4 WCI  19
LEWIS AIRPORT* SNOW      27  25  94 NE18      29.70S VSB 1/2 WCI  13
NORTHERLY IS     N/A     26  25  96 NE26        N/A  WCI  11
$$

WIZ051-052-058>065-066-070>072-012200-
SOUTHEAST WISCONSIN

CITY           SKY/WX    TMP DP  RH WIND       PRES   REMARKS
MILWAUKEE      SNOW      22  17  81 NE28G39   29.90F VSB 1/4 WCI   4
KENOSHA*       HVY SNOW  21  19  92 NE20G35   29.85F VSB 1/4 WCI   6
RACINE*        SNOW      22  18  85 NE31G39   29.89F VSB 1/4 WCI   4
BURLINGTON     LGT SNOW  20  17  87 NE20G28   29.86S WCI   5
WAUKESHA       LGT SNOW  18  16  93 NE12G35   29.90F VSB 1   WCI   5
WEST BEND      LGT SNOW  19  14  79 NE22G31   29.94F WCI   3
$$

INZ001>003-010>013-019-020-012200-
NORTHWEST INDIANA

CITY           SKY/WX    TMP DP  RH WIND       PRES   REMARKS
GARY*          SNOW      28  25  86 NE17G35   29.72S VSB 1/2 WCI  16
MICHIGAN CITY* NOT AVBL
RENSSELAER*    NOT AVBL
VALPARAISO     SNOW      26  24  92 NE14G26   29.68F VSB 1/2 WCI  14
$$

LMZ740>746-012200-
SOUTHERN LAKE MICHIGAN

STATION/POSITION TIME  SKY/WX   TEMP WIND        PRES    VSBY
                                AIR  DIR/SP/G
                 (UTC)          (F)  (DEG/KT/KT) (MB)    (MI)
HARRISON CRIB    2100            25   40/ 30/ 37   N/A
BURNHAM HARBOR   2100            26   40/ 22/ 27   N/A
CALUMET HARBOR   2100            26   30/ 25/ 30   N/A
BURNS HARBOR     NOT AVBL
MICHIGAN CITY    2100            24   40/ 20/ 27   N/A
$$

ABBREVIATIONS USED IN REMARKS
   TC - TEMPERATURE IN CELSIUS
  WCI - WIND CHILL INDEX
   HX - HEAT INDEX
  VSB - VISIBILITY
$$


USA.gov is the U.S. government's official web portal to all federal, state and local government web resources and services.